sat.trackr.live / text

‹ back to catalog

STARLINK-34072

NORAD 64101 · 2025-110F

PAYLOAD ACTIVE UNKNOWN

§ Identity

Operator
Country
US
Launch date
2025-05-23
Launch site
AFWTR
Launch vehicle
Mass (kg)
RCS (m²)

Purposes: comms

External: N2YO · Heavens-Above · Gunter

§ Orbital elements

Epoch: 2026-09-20T12:47:34.876320Z

Period
94.01 min
Inclination
53.1579°
Eccentricity
0.0002130
Mean motion
15.31716455 rev/d
Perigee alt
469.2 km
Apogee alt
472.1 km
Semi-major
6,848.8 km
B*
2.9900e-4
RAAN
200.3382°
Arg perigee
72.1516°
Mean anomaly
287.9717°
Rev number
7,573

§ Raw data

STARLINK-340721 64101U 25110F   26263.53304255  .00008929  00000+0  29900-3 0  99972 64101  53.1579 200.3382 0002130  72.1516 287.9717 15.31716455 75731

JSON: /api/v1/satellites/64101 · /tle

For live sub-satellite position, see the globe view (requires WebGL).

§ Visibility from observer

Set your observer location to see the next 7 days of passes ≥ 10°. The values pass through the URL so the page stays shareable.

No JS? Fill the form by hand. The geolocation button needs JavaScript.